Flag for Switzerland Weather past 2 weeks in Altdorf, Uri, Switzerland

Now
47 °F

Sunny.


Feels Like: 47 °F
Forecast: 42 / 55 °F
Wind: 1 mph from Southwest

Location: Altdorf

Current Time: Oct 24, 2014 at 6:25:33 PM

Latest Report: Oct 24, 2014 at 5:00 PM


Visibility: 13 mi

Pressure: 30.16 "Hg

Humidity: 78%

Dew point: 40 °F

Location of AltdorfLocation

Historic Weather in Altdorf — Graph

°F

Altdorf temperature yesterday

Maximum temperature yesterday: 50 °F (at 2:00 PM)
Minimum temperature yesterday: 39 °F (at 11:00 PM)
Average temperature yesterday: 46 °F

Past Weeks' High & Low Weather Summary

 TemperatureHumidityPressure
High77 °F (Oct 12, 1:00 PM)99% (Oct 16, 2:00 AM)30.33 "Hg (Oct 16, 2:00 AM)
Low34 °F (Oct 24, 9:00 AM)33% (Oct 9, 6:00 PM)29.71 "Hg (Oct 12, 10:00 PM)
Average56 °F80%30.02 "Hg
* Reported Oct 9 5:00 PM — Oct 24 5:00 PM, Altdorf, Weather by CustomWeather, © 2014

Note: Actual official high and low records may vary slightly from our data, if they occured in-between our weather recording intervals... More about our weather records

Advertising

Altdorf weather history for previous 24 hours

 ConditionsComfort  
Time TempWeatherWind HumidityBarometerVisibility
5:00 PM
Oct 24
47 °FSunny.1 mph78%30.16 "Hg12 mi
4:00 PM51 °FCool.3 mph63%30.14 "HgN/A
3:00 PM51 °FCool.5 mph68%30.15 "HgN/A
2:00 PM49 °FSunny.5 mph67%30.16 "Hg18 mi
1:00 PM48 °FCool.3 mph67%30.19 "HgN/A
12:00 PM46 °FCool.1 mph76%30.22 "HgN/A
11:00 AM43 °FSunny.1 mph75%30.24 "Hg16 mi
10:00 AM41 °FQuite cool.3 mph86%30.24 "HgN/A
9:00 AM34 °FChilly.3 mph93%30.26 "HgN/A
8:00 AM34 °FSunny.3 mph92%30.25 "Hg12 mi
7:00 AM37 °FChilly.2 mph88%30.24 "HgN/A
6:00 AM37 °FChilly.7 mph85%30.25 "HgN/A
5:00 AM36 °FPassing clouds.6 mph88%30.27 "Hg12 mi
4:00 AM36 °FChilly.1 mph92%30.26 "HgN/A
3:00 AM36 °FChilly.2 mph91%30.28 "HgN/A
2:00 AM37 °FPassing clouds.5 mph90%30.28 "Hg12 mi
1:00 AM37 °FChilly.5 mph90%30.31 "HgN/A
12:00 AM35 °FChilly.3 mph92%30.32 "HgN/A
11:00 PM
Oct 23
39 °FPassing clouds.1 mph88%30.29 "Hg12 mi
10:00 PM39 °FChilly.2 mph86%30.29 "HgN/A
9:00 PM42 °FQuite cool.2 mph80%30.29 "HgN/A
8:00 PM41 °FPassing clouds.6 mph79%30.29 "Hg15 mi
7:00 PM46 °FCool.3 mph69%30.27 "HgN/A
6:00 PM47 °FCool.3 mph74%30.27 "HgN/A
Weather by CustomWeather, © 2014

See weather overviewHow to use our weather pages